This is the latest recevied weather packets stored in our database for station/object KO4LCK. If no packets are shown the sender has not sent any weather packets the latest 10 day(s).
| Time | Temp. | Humidity | Pressure | Rain* | Wind** | Luminosity | Snow |
|---|---|---|---|---|---|---|---|
| 1777464952 | 17.22° C | 96% | 1015.1 hPa | 0 mm | - | 100 W/m² | - |
| 1777464646 | 17.22° C | 96% | 1015.1 hPa | 0 mm | - | 83 W/m² | - |
| 1777464343 | 17.22° C | 96% | 1015.2 hPa | 0 mm | - | 73 W/m² | - |
| 1777464038 | 17.22° C | 96% | 1015.2 hPa | 0 mm | - | 45 W/m² | - |
| 1777463734 | 16.67° C | 97% | 1015 hPa | 0 mm | - | 55 W/m² | - |
| 1777463429 | 16.67° C | 97% | 1015.1 hPa | 0 mm | - | 67 W/m² | - |
| 1777463125 | 16.67° C | 96% | 1015.2 hPa | 0 mm | - | 62 W/m² | - |
| 1777462821 | 16.67° C | 96% | 1015.2 hPa | 0 mm | - | 46 W/m² | - |
| 1777462516 | 16.67° C | 96% | 1015.4 hPa | 1.78 mm | - | 26 W/m² | - |
| 1777462212 | 16.67° C | 96% | 1015.6 hPa | 4.83 mm | - | 16 W/m² | - |
| 1777461909 | 16.67° C | 96% | 1015.7 hPa | 3.05 mm | - | 11 W/m² | - |
| 1777461606 | 16.67° C | 96% | 1016.1 hPa | 0 mm | - | 5 W/m² | - |
| 1777461301 | 16.67° C | 96% | 1015.9 hPa | 0 mm | - | 6 W/m² | - |
| 1777460997 | 16.67° C | 96% | 1015.7 hPa | 0 mm | - | 6 W/m² | - |
| 1777460693 | 16.67° C | 96% | 1016 hPa | 0 mm | - | 5 W/m² | - |
| 1777460389 | 16.67° C | 96% | 1015.9 hPa | 0 mm | - | 3 W/m² | - |
| 1777460084 | 16.67° C | 96% | 1015.6 hPa | 0 mm | - | 1 W/m² | - |
| 1777459782 | 16.67° C | 96% | 1015.6 hPa | 0 mm | - | 1 W/m² | - |
| 1777459479 | 16.67° C | 96% | 1015.5 hPa | 0 mm | - | 0 W/m² | - |
| 1777459177 | 16.67° C | 96% | 1015.1 hPa | 0 mm | - | 0 W/m² | - |
| 1777458874 | 17.22° C | 96% | 1014.9 hPa | 0 mm | - | 0 W/m² | - |
| 1777458570 | 17.22° C | 96% | 1014.8 hPa | 0 mm | - | 0 W/m² | - |
| 1777458261 | 17.22° C | 96% | 1014.2 hPa | 0 mm | - | 0 W/m² | - |
| 1777457956 | 17.22° C | 96% | 1014.2 hPa | 0 mm | - | 0 W/m² | - |
| 1777457653 | 17.22° C | 96% | 1013.8 hPa | 0 mm | - | 0 W/m² | - |
* Rain latest hour (hover to see other rain measurements)
** Current wind speed in m/s (hover to see current wind gust speed)